Regional Weather Roundup
Issued by NWS Newport/Morehead, NC

Current Version | Previous Version | Graphics & Text | Print | Product List | Glossary On
Versions: 1 2 3 4 5 6 7 8 9 10 11 12 13 14 15 16 17 18 19 20 21 22 23 24 25 26 27 28 29 30 31 32 33 34 35 36 37 38 39 40 41 42 43 44 45 46 47 48 49 50
000 ASUS42 KMHX 061213 RWRMHX WEATHER ROUNDUP FOR EASTERN NORTH CAROLINA NATIONAL WEATHER SERVICE NEWPORT/MOREHEAD CITY NC 800 AM EDT MON JUL 06 2015 NOTE: "FAIR" INDICATES FEW OR NO CLOUDS BELOW 12,000 FEET WITH NO SIGNIFICANT WEATHER AND/OR OBSTRUCTIONS TO VISIBILITY NCZ015>017-031-032-045>047-102-103-061300- NORTH COAST CITY SKY/WX TMP DP RH WIND PRES REMARKS EDENTON MOSUNNY 77 73 88 S7 30.14R ELIZABETH CITY MOSUNNY 78 74 87 S6 30.14S KITTY HAWK MOSUNNY 80 76 85 SW8 30.14R MANTEO MOSUNNY 78 75 89 SW7 30.15S $$ NCZ045>047-081-094-103-104-061300- CENTRAL COAST CITY SKY/WX TMP DP RH WIND PRES REMARKS FRISCO MOSUNNY 78 75 90 SW6 30.17R SWANQUARTER N/A 82 N/A N/A SW8G14 30.12R $$ NCZ095-097-098-100-101-061300- SOUTHERN COAST CITY SKY/WX TMP DP RH WIND PRES REMARKS BEAUFORT MOSUNNY 79 72 79 SW6 30.15R CEDAR ISLAND N/A 82 N/A N/A S3G10 30.18S JACKSONVILLE MOSUNNY 76 71 85 S5 30.13S PINEY ISLAND MOSUNNY N/A N/A N/A S6 30.15R WILMINGTON SUNNY 79 73 82 SW3 30.13S $$ NCZ011>013-027>030-043-044-078>080-089-090>093-098-061300- COASTAL PLAIN CITY SKY/WX TMP DP RH WIND PRES REMARKS AHOSKIE CLOUDY N/A N/A N/A S6 30.14R CLINTON PTSUNNY 76 74 95 S5 30.13S ELIZABETHTOWN SUNNY 75 75 98 S5 30.13S GOLDSBORO MOSUNNY 77 75 93 S6 30.11S GREENVILLE CLOUDY 77 75 94 S6 30.15R FOG HAVELOCK PTSUNNY 76 72 87 SE5 30.16R KENANSVILLE CLOUDY 76 74 91 CALM 30.14S KINSTON PTSUNNY 79 75 89 S7 30.14R NEW BERN MOSUNNY 77 73 87 S6 30.15R RICHLANDS MOSUNNY 75 68 78 S3 30.14S ROCKY MOUNT MOSUNNY 76 74 93 S5 30.12S FOG WASHINGTON MOSUNNY 78 74 89 CALM 30.14S WHITEVILLE SUNNY 76 71 83 S6 30.13S $$ AMZ130-135-150-152-154-156-158-170-250-252-270-ANZ085-086-088-633-658-670-061300- MARINE OBSERVATIONS STATION/POSITION TIME TEMP WIND PRES WAVE SWELL AIR SEA DIR/SP/G HT/PER HT/PER (UTC) (F) (DEG/KT/KT) (MB) (FT/S) (FT/S) CHESAPEAKE LIGHT 1200 77 180/ 8/ 9 1020.8 64 E VA BEACH 1150 78 77 210/ 8/ 10 1020.2 3/ 9 2/ 9 DUCK 1100 78 78 240/ 10/ 12 N/A 2 E DUCK 1111 78 N/A 2/ 8 OREGON INLET 1100 80 81 230/ 12/ 13 1020.5 13E OREGON INLT 1200 78 N/A 3/ 5 2/13 HATTERAS CG 1100 78 79 230/ 5/ 7 1020.5 DIAMOND BUOY 1150 80 81 220/ 8/ 10 1021.3 3/ 5 2/ 5 CAPE LOOKOUT 1200 80 240/ 10/ 13 1020.7 BEAUFORT LAB 1100 80 81 230/ 7/ 12 1020.1 30 SE NEW RVR IN NOT AVBL 27 SE WRIGHTSVLE NOT AVBL 5 SE WRIGHTSVLE 1108 79 78 220/ 8/ 12 1020.5 225 S CAPE HAT 1150 81 80 210/ 10/ 12 1022.6 3/ 8 3/ 8 41 SE CHARLESTON 1150 80 81 220/ 10/ 10 1020.4 3/ 9 2/ 9 $$

USA.gov is the U.S. government's official web portal to all federal, state and local government web resources and services.